When you browse on this site, cookies collect data to enhance your experience and personalize the content and advertising you see.
Visit our Privacy Policy to learn more. By continuing to use the site, you agree to this use of cookies and data.
  • En España
  • Lista de países
  • Para 7 días
  • Temperatura del agua
  • El tiempo en el mapa
  • Informadores
  • user-avatar
    Iniciar sesión

    Tiempo cada hora Bandar Seri Begawan

    Hoy, 29 Febrero, Sábado

    Tiempo Temperatura Precipitaciones Viento Presión Humedad
    00:00 +27°C° 0.2 mm 2 mps 755 mmHg 93%
    01:00 +27°C° 0.2 mm 2 mps 755 mmHg 93%
    02:00 +27°C° 0 mm 3 mps 754 mmHg 94%
    03:00 +27°C° 0.2 mm 3 mps 754 mmHg 94%
    04:00 +26°C° 0.2 mm 2 mps 754 mmHg 95%
    05:00 +26°C° 0.2 mm 2 mps 754 mmHg 95%
    06:00 +27°C° 0.1 mm 2 mps 754 mmHg 93%
    07:00 +27°C° 0.1 mm 2 mps 755 mmHg 92%
    08:00 +28°C° 0 mm 1 mps 755 mmHg 90%
    09:00 +30°C° 0 mm 1 mps 755 mmHg 81%
    10:00 +31°C° 0 mm 1 mps 755 mmHg 73%
    11:00 +34°C° 0 mm 2 mps 755 mmHg 64%
    12:00 +34°C° 0.1 mm 2 mps 754 mmHg 65%
    13:00 +34°C° 0.1 mm 3 mps 754 mmHg 66%
    14:00 +34°C° 0.1 mm 3 mps 753 mmHg 67%
    15:00 +33°C° 0.1 mm 3 mps 753 mmHg 70%
    16:00 +31°C° 0.1 mm 3 mps 752 mmHg 74%
    17:00 +30°C° 0.1 mm 3 mps 752 mmHg 77%
    18:00 +29°C° 0 mm 3 mps 752 mmHg 82%
    19:00 +29°C° 0 mm 2 mps 753 mmHg 87%
    20:00 +28°C° 0 mm 2 mps 754 mmHg 92%
    21:00 +27°C° 0 mm 2 mps 754 mmHg 93%
    22:00 +27°C° 0 mm 2 mps 754 mmHg 94%
    23:00 +27°C° 0 mm 1 mps 755 mmHg 95%

    Mañana, 1 Marzo, Domingo

    Tiempo Temperatura Precipitaciones Viento Presión Humedad
    00:00 +27°C° 0 mm 1 mps 754 mmHg 95%
    01:00 +27°C° 0 mm 1 mps 754 mmHg 96%
    02:00 +27°C° 0 mm 1 mps 754 mmHg 96%
    03:00 +26°C° 0 mm 1 mps 754 mmHg 96%
    04:00 +26°C° 0 mm 1 mps 753 mmHg 97%
    05:00 +26°C° 0 mm 1 mps 753 mmHg 97%
    06:00 +27°C° 0 mm 1 mps 754 mmHg 94%
    07:00 +27°C° 0 mm 1 mps 754 mmHg 91%
    08:00 +28°C° 0 mm 1 mps 755 mmHg 88%
    09:00 +30°C° 0 mm 1 mps 755 mmHg 79%
    10:00 +32°C° 0 mm 1 mps 755 mmHg 70%
    11:00 +34°C° 0 mm 1 mps 755 mmHg 61%
    12:00 +34°C° 0.2 mm 1 mps 754 mmHg 65%
    13:00 +34°C° 0.2 mm 2 mps 754 mmHg 68%
    14:00 +32°C° 0.2 mm 2 mps 753 mmHg 72%
    15:00 +32°C° 0.3 mm 2 mps 753 mmHg 75%
    16:00 +31°C° 0.3 mm 3 mps 753 mmHg 78%
    17:00 +31°C° 0.3 mm 3 mps 752 mmHg 81%
    18:00 +30°C° 0.2 mm 2 mps 753 mmHg 85%
    19:00 +29°C° 0.2 mm 2 mps 754 mmHg 89%
    20:00 +28°C° 0.2 mm 2 mps 754 mmHg 92%
    21:00 +27°C° 0 mm 2 mps 755 mmHg 93%
    22:00 +27°C° 0 mm 2 mps 755 mmHg 93%
    23:00 +27°C° 0 mm 2 mps 755 mmHg 94%

    Pasado mañana, 2 Marzo, Lunes

    Tiempo Temperatura Precipitaciones Viento Presión Humedad
    00:00 +27°C° 0 mm 2 mps 755 mmHg 94%
    01:00 +27°C° 0 mm 2 mps 755 mmHg 95%
    02:00 +27°C° 0 mm 1 mps 754 mmHg 95%
    03:00 +27°C° 0 mm 1 mps 754 mmHg 95%
    04:00 +26°C° 0 mm 1 mps 754 mmHg 95%
    05:00 +26°C° 0 mm 1 mps 754 mmHg 95%
    06:00 +27°C° 0.5 mm 1 mps 754 mmHg 94%
    07:00 +27°C° 0.5 mm 1 mps 755 mmHg 93%
    08:00 +28°C° 0.5 mm 1 mps 755 mmHg 92%
    09:00 +29°C° 0.3 mm 1 mps 755 mmHg 84%
    10:00 +31°C° 0.3 mm 1 mps 755 mmHg 75%
    11:00 +33°C° 0.3 mm 1 mps 755 mmHg 67%
    12:00 +34°C° 0.3 mm 2 mps 755 mmHg 69%
    13:00 +33°C° 0.3 mm 3 mps 754 mmHg 72%
    14:00 +33°C° 0.3 mm 4 mps 753 mmHg 75%
    15:00 +32°C° 0.3 mm 4 mps 753 mmHg 76%
    16:00 +32°C° 0.3 mm 4 mps 752 mmHg 77%
    17:00 +30°C° 0.3 mm 4 mps 752 mmHg 78%
    18:00 +29°C° 0 mm 4 mps 753 mmHg 81%
    19:00 +28°C° 0 mm 4 mps 753 mmHg 85%
    20:00 +28°C° 0 mm 3 mps 754 mmHg 88%
    21:00 +27°C° 0 mm 3 mps 754 mmHg 89%
    22:00 +27°C° 0 mm 3 mps 755 mmHg 89%
    23:00 +27°C° 0 mm 3 mps 755 mmHg 90%

    3 Marzo, Martes

    Tiempo Temperatura Precipitaciones Viento Presión Humedad
    00:00 +27°C° 0 mm 2 mps 755 mmHg 91%
    01:00 +27°C° 0 mm 2 mps 754 mmHg 92%
    02:00 +27°C° 0 mm 1 mps 754 mmHg 93%
    03:00 +26°C° 0 mm 1 mps 754 mmHg 94%
    04:00 +26°C° 0 mm 1 mps 753 mmHg 94%
    05:00 +26°C° 0 mm 1 mps 753 mmHg 95%
    06:00 +27°C° 0 mm 1 mps 754 mmHg 92%
    07:00 +27°C° 0 mm 1 mps 755 mmHg 89%
    08:00 +28°C° 0 mm 1 mps 755 mmHg 85%
    09:00 +29°C° 0.2 mm 1 mps 755 mmHg 82%
    10:00 +31°C° 0.2 mm 1 mps 755 mmHg 78%
    11:00 +32°C° 0.2 mm 1 mps 755 mmHg 74%
    12:00 +32°C° 0.7 mm 2 mps 754 mmHg 74%
    13:00 +32°C° 0.7 mm 2 mps 753 mmHg 75%
    14:00 +32°C° 0.7 mm 2 mps 752 mmHg 75%
    15:00 +31°C° 0.7 mm 3 mps 752 mmHg 78%
    16:00 +30°C° 0.7 mm 3 mps 752 mmHg 81%
    17:00 +29°C° 0.7 mm 3 mps 752 mmHg 83%
    18:00 +29°C° 0.1 mm 3 mps 753 mmHg 86%
    19:00 +28°C° 0.1 mm 2 mps 753 mmHg 88%
    20:00 +28°C° 0.1 mm 2 mps 754 mmHg 90%
    21:00 +28°C° 0.3 mm 2 mps 755 mmHg 91%
    22:00 +28°C° 0.3 mm 2 mps 755 mmHg 91%
    23:00 +28°C° 0.3 mm 2 mps 755 mmHg 92%

    4 Marzo, Miércoles

    Tiempo Temperatura Precipitaciones Viento Presión Humedad
    00:00 +27°C° 0.6 mm 1 mps 755 mmHg 93%
    01:00 +27°C° 0.6 mm 1 mps 754 mmHg 93%
    02:00 +27°C° 0.6 mm 1 mps 754 mmHg 93%
    03:00 +27°C° 0.2 mm 1 mps 754 mmHg 94%
    04:00 +27°C° 0.2 mm 1 mps 754 mmHg 94%
    05:00 +27°C° 0.2 mm 1 mps 753 mmHg 94%
    06:00 +27°C° 0.1 mm 1 mps 754 mmHg 93%
    07:00 +27°C° 0.1 mm 1 mps 755 mmHg 92%
    08:00 +27°C° 0.1 mm 1 mps 755 mmHg 91%
    09:00 +28°C° 0.1 mm 1 mps 755 mmHg 86%
    10:00 +29°C° 0.1 mm 1 mps 755 mmHg 81%
    11:00 +28°C° 0.1 mm 0 mps 755 mmHg 77%
    12:00 +31°C° 0.4 mm 1 mps 754 mmHg 76%
    13:00 +31°C° 0.4 mm 1 mps 753 mmHg 75%
    14:00 +32°C° 0.4 mm 2 mps 752 mmHg 74%
    15:00 +30°C° 1 mm 2 mps 753 mmHg 79%
    16:00 +29°C° 1 mm 2 mps 753 mmHg 84%
    17:00 +28°C° 1 mm 2 mps 753 mmHg 89%
    18:00 +28°C° 1.6 mm 1 mps 753 mmHg 91%
    19:00 +27°C° 1.6 mm 1 mps 754 mmHg 93%
    20:00 +27°C° 1.6 mm 1 mps 755 mmHg 94%
    21:00 +27°C° 2.7 mm 1 mps 755 mmHg 95%
    22:00 +26°C° 2.7 mm 1 mps 755 mmHg 96%
    23:00 +26°C° 2.7 mm 2 mps 756 mmHg 97%

    5 Marzo, Jueves

    Tiempo Temperatura Precipitaciones Viento Presión Humedad
    00:00 +26°C° 2 mm 2 mps 755 mmHg 97%
    01:00 +26°C° 2 mm 2 mps 755 mmHg 97%
    02:00 +25°C° 2 mm 2 mps 754 mmHg 97%
    03:00 +25°C° 2.6 mm 2 mps 754 mmHg 97%
    04:00 +26°C° 2.6 mm 1 mps 754 mmHg 97%
    05:00 +26°C° 2.6 mm 1 mps 754 mmHg 97%
    06:00 +26°C° 2.1 mm 1 mps 755 mmHg 97%
    07:00 +26°C° 2.1 mm 2 mps 756 mmHg 96%
    08:00 +26°C° 2.1 mm 2 mps 756 mmHg 96%
    09:00 +26°C° 2.4 mm 2 mps 757 mmHg 96%
    10:00 +26°C° 2.4 mm 2 mps 757 mmHg 96%
    11:00 +25°C° 2.4 mm 2 mps 757 mmHg 96%
    12:00 +26°C° 1.7 mm 2 mps 757 mmHg 96%
    13:00 +26°C° 1.7 mm 2 mps 756 mmHg 96%
    14:00 +26°C° 1.7 mm 2 mps 755 mmHg 95%
    15:00 +26°C° 0.4 mm 2 mps 755 mmHg 95%
    16:00 +26°C° 0.4 mm 2 mps 755 mmHg 96%
    17:00 +26°C° 0.4 mm 2 mps 755 mmHg 96%
    18:00 +26°C° 0.1 mm 2 mps 755 mmHg 95%
    19:00 +26°C° 0.1 mm 2 mps 755 mmHg 95%
    20:00 +25°C° 0.1 mm 1 mps 756 mmHg 95%
    21:00 +25°C° 0 mm 1 mps 756 mmHg 95%
    22:00 +25°C° 0 mm 1 mps 756 mmHg 95%
    23:00 +25°C° 0 mm 1 mps 756 mmHg 95%
    Mostrar más